This demonstration page uses our WeatherBlox Daily Observations layout. Learn more.

Left ArrowRight Arrow

39.29038, -76.61219

Hourly Observations for May 17, 2021

Temp ( °F °C ) Dew Point ( °F °C ) Humidity (%) Winds ( mph kmh ) Pressure ( in mb ) Visibility ( mi km ) Precip ( " mm )
12:54 am 00:54 Mostly Cloudy 55 12.8 52 11.1 90 90 N N/A 30.27 1025 10 16 N/A
1:54 am 01:54 Mostly Cloudy 54 12.2 51 10.6 90 90 WNW 3 6 30.27 1025 10 16 N/A
2:54 am 02:54 Mostly Cloudy 54 12.2 52 11.1 93 93 WNW 3 6 30.27 1025 10 16 N/A
3:54 am 03:54 Mostly Cloudy 54 12.2 51 10.6 90 90 N N/A 30.27 1025 10 16 N/A
4:54 am 04:54 Mostly Clear 51 10.6 49 9.4 92 92 W 3 6 30.27 1025 10 16 N/A
5:54 am 05:54 Mostly Sunny 50 10 49 9.4 96 96 N N/A 30.28 1025 10 16 N/A
6:54 am 06:54 Mostly Sunny 51 10.6 48 8.9 89 89 N N/A 30.29 1026 10 16 N/A
7:54 am 07:54 Mostly Cloudy 55 12.8 51 10.6 87 87 N N/A 30.31 1026 10 16 N/A
8:54 am 08:54 Mostly Cloudy 62 16.7 52 11.1 70 70 N 3 6 30.32 1027 10 16 N/A
9:54 am 09:54 Mostly Cloudy 64 17.8 53 11.7 68 68 N N/A 30.33 1027 10 16 N/A
10:54 am 10:54 Mostly Cloudy 68 20 49 9.4 51 51 N N/A 30.32 1027 10 16 N/A
11:54 am 11:54 Mostly Cloudy 71 21.7 48 8.9 44 44 N N/A 30.31 1027 10 16 N/A
12:54 pm 12:54 Mostly Cloudy 73 22.8 48 8.9 41 41 ENE 5 7 30.30 1026 10 16 N/A
1:54 pm 13:54 Mostly Cloudy 71 21.7 48 8.9 44 44 E 9 15 30.30 1026 10 16 N/A
2:54 pm 14:54 Mostly Cloudy 74 23.3 46 7.8 37 37 WSW 3 6 30.29 1026 10 16 N/A
3:54 pm 15:54 Mostly Cloudy 75 23.9 44 6.7 33 33 VRB 3 6 30.27 1025 10 16 N/A
4:54 pm 16:54 Mostly Cloudy 74 23.3 44 6.7 34 34 SW 3 6 30.27 1025 10 16 N/A
5:54 pm 17:54 Mostly Cloudy 73 22.8 44 6.7 35 35 N N/A 30.27 1025 10 16 N/A
6:54 pm 18:54 Mostly Cloudy 72 22.2 46 7.8 40 40 SE 6 9 30.27 1025 10 16 N/A
7:54 pm 19:54 Mostly Cloudy 69 20.6 47 8.3 45 45 SSE 5 7 30.28 1025 10 16 N/A
8:54 pm 20:54 Mostly Cloudy 67 19.4 47 8.3 49 49 SSE 5 7 30.29 1026 10 16 N/A
9:54 pm 21:54 Mostly Cloudy 59 15 49 9.4 69 69 N N/A 30.30 1026 10 16 N/A
10:54 pm 22:54 Mostly Cloudy 58 14.4 49 9.4 72 72 N N/A 30.32 1027 10 16 N/A
11:54 pm 23:54 Mostly Cloudy 55 12.8 49 9.4 80 80 W 3 6 30.31 1027 10 16 N/A

Powered by AerisWeather